This is the latest recevied weather packets stored in our database for station/object KB4MOX. If no packets are shown the sender has not sent any weather packets the latest 1 day(s).
| Time | Temp. | Humidity | Pressure | Rain* | Wind** | Luminosity | Snow |
|---|---|---|---|---|---|---|---|
| 1778071784 | 18.33° C | 83% | 1015.8 hPa | 0 mm | - | 125 W/m² | - |
| 1778070877 | 17.78° C | 84% | 1015.7 hPa | 0 mm | - | 46 W/m² | - |
| 1778070574 | 17.78° C | 83% | 1015.6 hPa | 0 mm | - | 49 W/m² | - |
| 1778070271 | 17.78° C | 83% | 1015.7 hPa | 0 mm | - | 72 W/m² | - |
| 1778069666 | 17.22° C | 84% | 1015.6 hPa | 0 mm | - | 66 W/m² | - |
| 1778069363 | 17.22° C | 84% | 1015.6 hPa | 0 mm | - | 63 W/m² | - |
| 1778068154 | 16.67° C | 86% | 1015.5 hPa | 0 mm | - | 44 W/m² | - |
| 1778067851 | 16.67° C | 86% | 1015.5 hPa | 0 mm | - | 31 W/m² | - |
| 1778066943 | 16.11° C | 87% | 1015.2 hPa | 0 mm | - | 27 W/m² | - |
| 1778066338 | 16.11° C | 87% | 1014.7 hPa | 0 mm | - | 27 W/m² | - |
| 1778066036 | 15.56° C | 87% | 1014.8 hPa | 0 mm | - | 23 W/m² | - |
| 1778065733 | 15.56° C | 87% | 1014.5 hPa | 0 mm | - | 18 W/m² | - |
| 1778065430 | 15.56° C | 87% | 1014.5 hPa | 0 mm | - | 15 W/m² | - |
| 1778065127 | 15.56° C | 87% | 1014.5 hPa | 0 mm | - | 14 W/m² | - |
| 1778064823 | 15.56° C | 87% | 1014.2 hPa | 0 mm | - | 9 W/m² | - |
| 1778064521 | 15.56° C | 87% | 1014.5 hPa | 0 mm | - | 5 W/m² | - |
| 1778063916 | 15.56° C | 88% | 1014.5 hPa | 0 mm | - | 2 W/m² | - |
| 1778063613 | 15.56° C | 88% | 1014.4 hPa | 0 mm | - | 1 W/m² | - |
| 1778062401 | 15.56° C | 88% | 1014.4 hPa | 0 mm | - | 0 W/m² | - |
| 1778060889 | 15.56° C | 86% | 1014.2 hPa | 0 mm | - | 0 W/m² | - |
| 1778059075 | 16.11° C | 85% | 1014.3 hPa | 0 mm | - | 0 W/m² | - |
| 1778058470 | 16.11° C | 85% | 1014.6 hPa | 0 mm | - | 0 W/m² | - |
| 1778058167 | 16.11° C | 85% | 1014.6 hPa | 0 mm | - | 0 W/m² | - |
| 1778057560 | 16.11° C | 84% | 1014.6 hPa | 0 mm | - | 0 W/m² | - |
| 1778057256 | 16.11° C | 83% | 1014.9 hPa | 0 mm | - | 0 W/m² | - |
* Rain latest hour (hover to see other rain measurements)
** Current wind speed in m/s (hover to see current wind gust speed)